This demonstration page uses our WeatherBlox Daily Observations layout. Learn more.

Left ArrowRight Arrow

44.8408, -93.29828

Hourly Observations for November 11, 2015

Temp ( °F °C ) Dew Point ( °F °C ) Humidity (%) Winds ( mph kmh ) Pressure ( in mb ) Visibility ( mi km ) Precip ( " mm )
12:53 am 00:53 Mostly Clear 47 8.3 35 1.7 63 63 SSE 7 11 29.80 1009 10 16 0.00 0.00
1:53 am 01:53 Mostly Clear 46 7.8 35 1.7 66 66 SE 7 11 29.80 1009 10 16 0.00 0.00
2:53 am 02:53 Clear 46 7.8 35 1.7 66 66 SE 6 9 29.78 1009 9 14 0.00 0.00
3:53 am 03:53 Clear 44 6.7 34 1.1 68 68 ESE 5 7 29.77 1008 9 14 0.00 0.00
4:53 am 04:53 Clear 44 6.7 34 1.1 68 68 ESE 5 7 29.75 1008 8 13 0.00 0.00
5:53 am 05:53 Clear 43 6.1 35 1.7 74 74 ESE 7 11 29.74 1007 8 13 0.00 0.00
6:53 am 06:53 Mostly Clear 43 6.1 35 1.7 74 74 ESE 7 11 29.73 1007 8 13 0.00 0.00
7:53 am 07:53 Mostly Sunny 44 6.7 36 2.2 73 73 E 6 9 29.73 1007 10 16 0.00 0.00
8:53 am 08:53 Partly Cloudy 46 7.8 36 2.2 68 68 ESE 7 11 29.72 1006 10 16 0.00 0.00
9:53 am 09:53 Mostly Cloudy 49 9.4 36 2.2 61 61 ESE 6 9 29.70 1006 10 16 0.00 0.00
10:53 am 10:53 Cloudy 50 10 37 2.8 61 61 ENE 6 9 29.68 1005 10 16 0.00 0.00
11:53 am 11:53 Cloudy 51 10.6 38 3.3 61 61 E 8 13 29.64 1004 10 16 0.00 0.00
12:53 pm 12:53 Cloudy 52 11.1 37 2.8 57 57 ENE 9 15 29.59 1002 10 16 0.00 0.00
1:37 pm 13:37 Cloudy 53 11.7 38 3.3 57 57 ENE 9 15 29.56 1001 10 16 0.00 0.00
1:53 pm 13:53 Cloudy 52 11.1 38 3.3 59 59 ENE 10 17 29.54 1001 10 16 0.00 0.00
2:26 pm 14:26 Cloudy with Nearby Thunderstorms 52 11 37 3 58 58 ENE 10 17 29.50 999 10 16 0.00 0.00
2:35 pm 14:35 Cloudy with Thunderstorms 52 11.1 38 3.3 59 59 ENE 13 20 29.50 999 10 16 0.00 0.00
2:53 pm 14:53 Cloudy with Strong Thunderstorms 49 9.4 42 5.6 77 77 ENE 12 19 29.50 999 8 13 0.05 1.27
3:18 pm 15:18 Cloudy with Strong Thunderstorms 47 8.3 43 6.1 86 86 NE 13 20 29.50 999 8 13 0.14 3.56
3:28 pm 15:28 Cloudy with Nearby Thunderstorms 48 9 43 6 82 82 NNE 13 20 29.44 997 8 13 0.00 0.00
3:43 pm 15:43 Cloudy with Light Rain 48 8.9 43 6.1 83 83 N 8 13 29.44 997 8 13 0.16 4.06
3:53 pm 15:53 Cloudy with Thunderstorms 48 8.9 42 5.6 80 80 N 12 19 29.44 997 8 13 0.17 4.32
4:32 pm 16:32 Cloudy with Nearby Thunderstorms 46 8 43 6 87 87 NE 10 17 29.47 998 8 13 0.00 0.00
4:53 pm 16:53 Cloudy with Nearby Thunderstorms 48 8.9 43 6.1 83 83 NNE 9 15 29.41 996 5 8 0.17 4.32
5:32 pm 17:32 Cloudy with Nearby Thunderstorms 47 8.3 44 6.7 90 90 NNE 8 13 29.41 996 2 3 0.09 2.29
5:37 pm 17:37 Cloudy with Strong Thunderstorms 46 7.8 43 6.1 89 89 NNE 7 11 29.41 996 2 3 0.15 3.81
5:46 pm 17:46 Cloudy with Strong Thunderstorms 46 8 45 7 93 93 N 6 9 29.47 998 1 2 0.00 0.00
5:53 pm 17:53 Cloudy with Strong Thunderstorms 46 7.8 44 6.7 93 93 N 10 17 29.43 997 2 2 0.38 9.65
6:10 pm 18:10 Cloudy with Thunderstorms 46 8 45 7 93 93 N 10 17 29.41 996 2 3 0.00 0.00
6:13 pm 18:13 Cloudy with Nearby Thunderstorms 46 7.8 44 6.7 93 93 NNE 10 17 29.41 996 2 3 0.10 2.54
6:18 pm 18:18 Cloudy with Rain 46 8 45 7 93 93 NNE 13 20 29.38 995 2 3 0.00 0.00
6:38 pm 18:38 Cloudy with Heavy Rain 46 8 45 7 93 93 N 16 26 29.35 994 2 3 0.00 0.00
6:53 pm 18:53 Cloudy with Rain 46 7.8 44 6.7 93 93 NNE 17 28 29.35 994 2 3 0.29 7.37
7:34 pm 19:34 Cloudy with Rain 46 8 45 7 93 93 NNE 16 26 29.29 992 3 5 0.00 0.00
7:53 pm 19:53 Cloudy with Rain 47 8.3 45 7.2 93 93 N 15 24 29.30 992 3 5 0.11 2.79
8:53 pm 20:53 Cloudy with Rain 47 8.3 45 7.2 93 93 N 16 26 29.26 991 3 5 0.18 4.57
9:53 pm 21:53 Cloudy with Rain 48 8.9 46 7.8 93 93 N 17 28 29.21 989 3 5 0.13 3.30
10:53 pm 22:53 Cloudy with Rain 46 7.8 44 6.7 93 93 NNW 20 31 29.20 989 4 6 0.11 2.79
11:53 pm 23:53 Cloudy with Rain 45 7.2 42 5.6 90 90 NNW 24 39 29.21 989 4 6 0.12 3.05

Powered by AerisWeather